Regional Weather Roundup
Issued by NWS

Home | Current Version | Previous Version | Graphics & Text | Print | Product List | Glossary On
Versions: 1 2 3 4 5 6 7 8 9 10 11 12 13 14 15 16 17 18 19 20 21 22 23 24 25 26 27 28 29 30 31 32 33 34 35 36 37 38 39 40 41 42 43 44 45 46 47 48 49 50
000
ASUS43 KLOT 070812
RWRIL

ILLINOIS REGIONAL WEATHER ROUNDUP
NATIONAL WEATHER SERVICE CHICAGO/ROMEOVILLE IL
300 AM CDT TUE JUL 07 2015

NOTE: "FAIR" INDICATES FEW OR NO CLOUDS BELOW 12,000 FEET WITH NO
SIGNIFICANT WEATHER AND/OR OBSTRUCTIONS TO VISIBILITY.

* THESE STATIONS ARE NOT UNDER NWS QUALITY CONTROL. THEY ALSO MAY NOT
  REPORT WEATHER SUCH AS PRECIPITATION OR FOG.

ILZ001-002-007-009-015-016-024-070900-
NORTHWEST ILLINOIS

CITY           SKY/WX    TMP DP  RH WIND       PRES   REMARKS
MOLINE         CLOUDY    65  59  81 N8        29.90R HAZE
STERLING*      CLOUDY    64  63  94 N7        29.89R
SAVANNA*       CLOUDY    63  58  85 N9        29.90R FOG
$$

ILZ003-004-008-010-011-017-018-070900-
NORTH CENTRAL ILLINOIS

CITY           SKY/WX    TMP DP  RH WIND       PRES   REMARKS
ROCKFORD       CLOUDY    64  60  87 N15G25    29.89R FOG
FREEPORT*      CLOUDY    61  58  91 N12G20    29.92R FOG
ROCHELLE*      CLOUDY    64  63  95 N13G18    29.88R
DE KALB*       CLOUDY    64  61  93 N14       29.89R
PERU*          CLOUDY    71  70  96 SW5       29.86S
$$

ILZ005-006-012>014-019>023-070900-
NORTHEAST ILLINOIS

CITY           SKY/WX    TMP DP  RH WIND       PRES   REMARKS
CHICAGO-OHARE  CLOUDY    71  68  90 SW7       29.83S
CHICAGO-MIDWAY CLOUDY    74  69  85 SW5       29.84F
AURORA         CLOUDY    71  68  90 SW6       29.85S
LANSING*       LGT RAIN  71  68  89 S6        29.86S
JOLIET*        DRIZZLE   72  72  98 SW3       29.86R
WAUKEGAN       CLOUDY    68  66  93 VRB7G17   29.85R
DUPAGE AIRPORT CLOUDY    71  68  90 SW7       29.84S
KANKAKEE*      RAIN      71  71  99 CALM      29.86F
WHEELING       CLOUDY    72  68  87 W6        29.85R
MORRIS*        LGT RAIN  71  70  95 S5        29.84R
ROMEOVILLE*    DRIZZLE   71  70  98 SW7       29.86R
NORTHERLY ISL    N/A     72  68  87 S3          N/A
$$

LMZ740>746-070900-
SOUTHERN LAKE MICHIGAN

STATION/POSITION SKY/WX   TEMP    WIND        PRES    VSBY  WAVE
                          AIR SEA DIR/SP/G                  HT/PER
                          (F)     (DEG/KT/KT) (MB)    (MI)  (FT/S)
HARRISON CRIB              71     190/ 13/ 14   N/A
BURNHAM HARBOR             72     200/  3/  8   N/A
CALUMET HARBOR             72     180/  4/  6   N/A
BURNS HARBOR               71     250/  7/ 10 1011.9R
MICHIGAN CITY              69     240/  4/  7   N/A
MICHIGAN CITY 6N           69 68  240/  4/  6   N/A           1
ST. JOSEPH                 68 66  210/  4/  4   N/A           1/ 3
$$

ILZ025>027-034>036-040-047-049-050-058-095>099-070900-
WEST-CENTRAL ILLINOIS

CITY           SKY/WX    TMP DP  RH WIND       PRES   REMARKS
QUINCY         LGT RAIN  73  71  93 NW6       29.89R
GALESBURG*     CLOUDY    65  63  95 N12       29.90R
MACOMB*        CLOUDY    67  66  97 N10       29.91R
JACKSONVILLE*  HVY RAIN  74  73  96 NW9       29.86F
PITTSFIELD*    HVY RAIN  72  69  93 NW6       29.89R
$$

ILZ028>032-037-038-041>044-048-051>054-059>061-070900-
CENTRAL ILLINOIS

CITY           SKY/WX    TMP DP  RH WIND       PRES   REMARKS
PONTIAC        HVY RAIN  73  72  99 SW12G17   29.90R
BLOOMINGTON    LGT RAIN  72  71  96 CALM      29.89F FOG
DECATUR        CLOUDY    77  73  87 S12       29.87F
PEORIA         CLOUDY    73  70  90 SW3       29.87R
LACON*         CLOUDY    71  69  95 SW3       29.85F
LINCOLN*       CLOUDY    74  72  93 CALM      29.86F
SPRINGFIELD    LGT RAIN  74  72  93 S6        29.87F
TAYLORVILLE    CLOUDY    75  73  94 SW8       29.88S
$$

ILZ033-039-045-046-055>057-062-063-070900-
EAST-CENTRAL ILLINOIS

CITY           SKY/WX    TMP DP  RH WIND       PRES   REMARKS
CHAMPAIGN      CLOUDY    75  73  93 S10       29.88F
DANVILLE*      RAIN      75  73  95 S10       29.87S
RANTOUL*       CLOUDY    78  75  90 SW9       29.87F HX  80
MATTOON        CLOUDY    75  73  93 S9        29.89F
PARIS*         MOCLDY    75  74  95 S10       29.91S
$$

ILZ079-100>102-070900-
SOUTHWEST ILLINOIS

CITY           SKY/WX    TMP DP  RH WIND       PRES   REMARKS
ALTON          CLOUDY    77  77 100 S10       29.88F
BELLEVILLE     CLOUDY    78  77  99 S8        29.89S
CAHOKIA*       CLOUDY    80  73  79 S8        29.88S HX  84
SPARTA*        CLOUDY    76  73  89 SW9       29.93S
$$

ILZ064>066-069>071-074>076-080>082-084>086-088>090-092>094-070900-
SOUTH-CENTRAL ILLINOIS

CITY           SKY/WX    TMP DP  RH WIND       PRES   REMARKS
CARBONDALE     CLOUDY    77  71  82 SW13      29.94S
CAIRO*         CLOUDY    75  72  89 S9        29.95F
EFFINGHAM*     MOCLDY    76  72  87 S6        29.93S
MARION         MOCLDY    77  73  88 S8        29.95S
MT. VERNON     MOCLDY    77  70  78 SW14      29.93F
CENTRALIA*     MOCLDY    76  71  83 S8        29.92S
SALEM*         MOCLDY    78  73  83 SW9       29.92S HX  81
$$

ILZ067-068-072-073-078-083-087-091-070900-
SOUTHEAST ILLINOIS

CITY           SKY/WX    TMP DP  RH WIND       PRES   REMARKS
LAWRENCEVILLE  MOCLDY    76  73  91 S10       29.94S
FLORA*         MOCLDY    76  72  88 S7        29.93S
FAIRFIELD*     PTCLDY    76  73  90 S7        29.92S
HARRISBURG*    PTCLDY    77  74  92 S8        29.96S
ROBINSON*      MOCLDY    76  73  90 SW8       29.94S
CARMI*         PTCLDY    76  69  79 S8        29.94F
$$

ABBREVIATIONS USED IN REMARKS
   TC - TEMPERATURE IN CELSIUS
  WCI - WIND CHILL INDEX
   HX - HEAT INDEX
  VSB - VISIBILITY
$$



USA.gov is the U.S. government's official web portal to all federal, state and local government web resources and services.